[[{"header":{"parameterUnit":"m.s-1","parameterCategory":2,"la1":30.2991,"la2":30.254,"lo1":-89.0895,"lo2":-89.0444,"dy":0.0017,"dx":0.0017,"nx":28,"ny":28,"refTime":"2024-06-25T09:00:00:Z","depth":"0","parameterNumber":2,"parameterNumberName":"U-component_of_CURRENTS"},"data":[0,0,0,0,0,0,0,0,0,0,0,0,0,0,0,0,0,0,0,0,0,0,0,0,0,0,0,0,0,0,0,0,0,0,0,0,0,0,0,0,0,0,0,0,0,0,0,0,0,0,0,0,0,0,0,0,0,0,0.1658,0.1661,0,0.1941,0.1944,0.1948,0.2072,0.2071,0.207,0.207,0.2361,0.2369,0.2378,0,0,0,0,0,0,0,0,0,0,0,0,0,0.1504,0.1505,0.1658,0.1661,0.1664,0.194,0.1944,0.1949,0.2072,0.2071,0.207,0.2069,0.2358,0.2368,0.2379,0,0,0,0,0,0,0,0,0,0,0,0,0,0.166,0.1505,0.1657,0.1756,0.1768,0.1939,0.1944,0.195,0.2072,0.2071,0.207,0.2069,0.2355,0.2367,0.238,0.2481,0,0,0.2419,0.2424,0,0,0,0,0,0,0,0,0.1651,0.1666,0.1739,0.175,0.1763,0.1967,0.1997,0.2127,0.2073,0.1961,0.207,0.2068,0.2228,0.2252,0.2312,0.2494,0.2507,0.242,0.2428,0.2433,0.2437,0,0,0,0,0,0,0,0.1639,0.1656,0.1774,0.1742,0.1757,0.1882,0.1901,0.2024,0.21,0.197,0.1979,0.2005,0.2235,0.23,0.232,0.2511,0.242,0.2431,0.2439,0.2444,0.2722,0.2722,0,0,0,0,0,0,0.1583,0.1644,0.1765,0.1782,0.1699,0.1884,0.1906,0.1905,0.2099,0.2127,0.2006,0.201,0.2279,0.2305,0.2331,0.2464,0.2433,0.2445,0.2452,0.2722,0.2722,0.2721,0,0,0,0,0,0,0.1579,0.159,0.1753,0.1719,0.1747,0.1885,0.1886,0.1911,0.1971,0.2125,0.2153,0.2037,0.2279,0.2313,0.244,0.2475,0.2451,0.2462,0.2722,0.2722,0.2722,0.2728,0,0,0,0,0,0,0.1572,0.1586,0.1578,0.1713,0.1747,0.1849,0.1888,0.1918,0.1987,0.1996,0.2163,0.2189,0.2281,0.2421,0.2453,0.2492,0.2472,0.2723,0.2722,0.2722,0.2728,0.2728,0.2727,0,0,0,0,0,0.1566,0.1561,0.1575,0.1591,0.1726,0.185,0.188,0.1979,0.1989,0.2026,0.2132,0.2183,0.2438,0.2433,0.247,0.2514,0.2723,0.2722,0.2722,0.2728,0.2728,0.2727,0,0,0,0,0,0,0.1508,0.1577,0.1595,0.1614,0.1716,0.1869,0.1913,0.1972,0.2088,0.2091,0.2217,0.2253,0.2374,0.2428,0.2417,0.258,0.2576,0.2583,0.2567,0.2568,0.2568,0.2522,0.2483,0,0,0,0,0,0.1481,0.1482,0.159,0.1608,0.1647,0.1774,0.1836,0.1903,0.2019,0.2069,0.2187,0.2293,0.2405,0.247,0.2577,0.2688,0.2678,0.2721,0.2721,0.2721,0.2702,0.2745,0.2747,0.272,0.272,0.272,0,0,0.1467,0.1503,0.1507,0.1594,0.1676,0.1768,0.1809,0.1899,0.1991,0.2084,0.2234,0.2314,0.2431,0.2557,0.2611,0.2608,0.271,0.272,0.272,0.2701,0.2745,0.2748,0.275,0.272,0.272,0.272,0,0,0.1454,0.1464,0.1471,0.1552,0.1658,0.1754,0.1768,0.1918,0.1991,0.2138,0.2214,0.2297,0.2493,0.2574,0.264,0.2694,0.2712,0.2719,0.2699,0.2741,0.2744,0.2747,0.2682,0.2679,0.2717,0.2717,0.2717,0,0.1438,0.1459,0.1505,0.1558,0.1633,0.1738,0.1813,0.1921,0.2099,0.2156,0.2176,0.2405,0.2501,0.2633,0.2645,0.27,0.2685,0.2703,0.2743,0.2746,0.2748,0.2682,0.2678,0.2717,0.2717,0.2717,0.2717,0,0.1453,0.1484,0.1504,0.1596,0.1686,0.1765,0.1909,0.2004,0.2093,0.2191,0.2323,0.2442,0.256,0.2601,0.2656,0.2721,0.2688,0.2744,0.2747,0.2752,0.268,0.2676,0.2718,0.2717,0.2717,0.2717,0,0,0.1401,0.149,0.1503,0.1555,0.1711,0.1796,0.1933,0.2086,0.2164,0.2296,0.2387,0.2543,0.2557,0.2623,0.2685,0.2712,0.2706,0.2725,0.2727,0.2661,0.2718,0.2383,0.2347,0.2784,0.2784,0.2785,0.264,0,0.1413,0.1479,0.1545,0.1671,0.1734,0.1869,0.1999,0.2142,0.2255,0.2369,0.2449,0.2554,0.2586,0.262,0.2662,0.2724,0.2705,0.2734,0.272,0.2716,0.2424,0.2336,0.2187,0.2019,0.2636,0.2636,0.2635,0,0.1425,0.1468,0.1549,0.1702,0.1745,0.184,0.2032,0.2153,0.2313,0.2392,0.2471,0.2539,0.2606,0.262,0.2678,0.2698,0.2684,0.2697,0.2695,0.2376,0.2375,0.2125,0.1989,0.1961,0.2629,0.263,0.263,0,0.1371,0.1494,0.1546,0.1601,0.1782,0.185,0.1957,0.2133,0.2224,0.2359,0.2406,0.2519,0.2537,0.2596,0.2569,0.2656,0.256,0.2706,0.2367,0.2342,0.22,0.2158,0.2035,0.2691,0.2692,0.2692,0.2693,0,0.137,0.1427,0.1512,0.1551,0.1652,0.1786,0.1901,0.203,0.2163,0.2224,0.237,0.2396,0.2533,0.2498,0.2529,0.2347,0.2519,0.2297,0.2274,0.2183,0.2143,0.21,0.2132,0.2687,0.2688,0.2689,0.269,0,0.1322,0.137,0.1442,0.1575,0.162,0.1683,0.1843,0.192,0.2048,0.2118,0.2143,0.2278,0.2221,0.2241,0.2263,0.2211,0.203,0.2016,0.1808,0.1759,0.1444,0.1481,0.1234,0.1214,0.1686,0.1677,0.1669,0,0.1305,0.1321,0.1418,0.1445,0.15,0.1597,0.1674,0.184,0.1897,0.2016,0.2025,0.1988,0.1939,0.1769,0.1664,0.1536,0.1624,0.1281,0.1422,0.131,0.1345,0.1395,0.1409,0.1248,0.1237,0.1229,0.1221,0,0.1285,0.1296,0.1342,0.1372,0.143,0.1511,0.1599,0.1624,0.1775,0.1811,0.1783,0.1735,0.1532,0.131,0.1054,0.1,0.118,0.1088,0.1111,0.1033,0.0955,0.0962,0.1404,0.1144,0.1152,0.1157,0.1162,0.1165,0.1262,0.1264,0.1287,0.132,0.1365,0.1393,0.1417,0.147,0.1499,0.1484,0.1494,0.1337,0.108,0.0728,0.0632,0.0346,0.0566,0.0375,0.0439,0.0506,0.0431,0.0568,0.0192,0.0195,0.0196,0.0198,0.02,0,0.1238,0.123,0.1244,0.1261,0.1254,0.1315,0.1357,0.1342,0.1284,0.1208,0.1117,0.0753,0.0442,0.0246,-0.0123,-0.0228,-0.0084,-0.0229,-0.0045,0.0023,0.0261,0.0185,-0.0379,-0.0378,-0.0378,-0.0378,-0.0378,-0.0378,0.1227,0.1207,0.1195,0.1148,0.1146,0.1129,0.1123,0.1078,0.1015,0.0766,0.0531,0.0402,0.011,-0.0316,-0.0569,-0.0565,-0.0418,-0.055,-0.0398,-0.0089,-0.002,0.0047,-0.0014,-0.061,-0.061,-0.0614,-0.0615,-0.0615]},{"header":{"parameterUnit":"m.s-1","parameterCategory":2,"la1":30.2991,"la2":30.254,"lo1":-89.0895,"lo2":-89.0444,"dy":0.0017,"dx":0.0017,"nx":28,"ny":28,"refTime":"2024-06-25T09:00:00:Z","depth":"0","parameterNumber":3,"parameterNumberName":"V-component_of_CURRENTS"},"data":[0,0,0,0,0,0,0,0,0,0,0,0,0,0,0,0,0,0,0,0,0,0,0,0,0,0,0,0,0,0,0,0,0,0,0,0,0,0,0,0,0,0,0,0,0,0,0,0,0,0,0,0,0,0,0,0,0,0,-0.0019,-0.002,0,-0.0175,-0.0177,-0.018,-0.0288,-0.0288,-0.0288,-0.0288,-0.0532,-0.0538,-0.0545,0,0,0,0,0,0,0,0,0,0,0,0,0,0.0013,0.0013,-0.0019,-0.002,-0.0021,-0.0174,-0.0178,-0.0181,-0.0288,-0.0288,-0.0288,-0.0288,-0.053,-0.0537,-0.0545,0,0,0,0,0,0,0,0,0,0,0,0,0,-0.0067,0.0013,-0.0019,-0.0085,-0.0092,-0.0174,-0.0178,-0.0182,-0.0288,-0.0288,-0.0288,-0.0288,-0.0527,-0.0537,-0.0546,-0.0611,0,0,-0.0577,-0.0581,0,0,0,0,0,0,0,0,-0.0062,-0.0069,-0.0075,-0.0081,-0.0088,-0.0203,-0.0255,-0.0326,-0.0289,-0.0225,-0.0288,-0.0288,-0.0423,-0.0442,-0.0485,-0.0623,-0.0633,-0.0578,-0.0584,-0.0588,-0.0591,0,0,0,0,0,0,0,-0.0056,-0.0064,-0.0091,-0.0075,-0.0084,-0.0166,-0.0177,-0.0271,-0.0333,-0.023,-0.0236,-0.0237,-0.0429,-0.0475,-0.0492,-0.0637,-0.0577,-0.0586,-0.0592,-0.0596,-0.0801,-0.08,0,0,0,0,0,0,-0.0007,-0.0057,-0.0086,-0.0095,-0.0063,-0.0165,-0.0178,-0.0175,-0.033,-0.035,-0.0237,-0.0241,-0.0458,-0.048,-0.0501,-0.0562,-0.0588,-0.0597,-0.0603,-0.0801,-0.0801,-0.08,0,0,0,0,0,0,-0.0006,-0.0008,-0.0079,-0.0072,-0.0086,-0.0163,-0.0161,-0.0178,-0.0213,-0.0332,-0.0356,-0.0251,-0.0459,-0.0487,-0.0576,-0.0573,-0.0602,-0.0611,-0.0802,-0.0801,-0.08,-0.0701,0,0,0,0,0,0,-0.0004,-0.0007,-0.0001,-0.0068,-0.0084,-0.0115,-0.0161,-0.0181,-0.0209,-0.0216,-0.0353,-0.0376,-0.0461,-0.0561,-0.0586,-0.0587,-0.0618,-0.0802,-0.0801,-0.0801,-0.0705,-0.0697,-0.069,0,0,0,0,0,-0.0003,0.0005,0.0,-0.0004,-0.0069,-0.0113,-0.0131,-0.0194,-0.0209,-0.0226,-0.0315,-0.0371,-0.0572,-0.0569,-0.0599,-0.0603,-0.0803,-0.0802,-0.0801,-0.0708,-0.0699,-0.069,0,0,0,0,0,0,0.0009,-0.0006,-0.0013,-0.0013,-0.0048,-0.0127,-0.015,-0.0179,-0.0264,-0.0275,-0.0383,-0.0414,-0.0486,-0.0555,-0.0549,-0.0654,-0.069,-0.0694,-0.0609,-0.0601,-0.0594,-0.0545,-0.0627,0,0,0,0,0,0.0025,0.0032,-0.0001,-0.0001,-0.0012,-0.0074,-0.0102,-0.0137,-0.0209,-0.0246,-0.0337,-0.0429,-0.0507,-0.056,-0.0645,-0.0716,-0.0689,-0.073,-0.0723,-0.0716,-0.0694,-0.0629,-0.0612,-0.0796,-0.0796,-0.0796,0,0,0.0029,0.0023,0.0025,0.0003,-0.0035,-0.0063,-0.0094,-0.0125,-0.0162,-0.0261,-0.0348,-0.0411,-0.0518,-0.0593,-0.063,-0.0652,-0.0646,-0.0715,-0.0708,-0.069,-0.0626,-0.0607,-0.0591,-0.0795,-0.0796,-0.0796,0,0,0.0041,0.0039,0.0048,0.0027,-0.0001,-0.0048,-0.0043,-0.011,-0.0153,-0.023,-0.0298,-0.034,-0.0494,-0.0546,-0.0597,-0.0596,-0.0604,-0.0631,-0.0568,-0.0505,-0.0488,-0.0473,-0.039,-0.0368,-0.0633,-0.0633,-0.0633,0,0.0045,0.0056,0.0039,0.0036,0.0017,-0.0031,-0.0043,-0.0101,-0.0192,-0.0212,-0.0244,-0.0378,-0.0464,-0.0517,-0.052,-0.0577,-0.0533,-0.0595,-0.049,-0.0475,-0.0461,-0.038,-0.0357,-0.0628,-0.0628,-0.0629,-0.0629,0,0.006,0.0065,0.0065,0.0048,0.0019,0.0003,-0.0055,-0.0093,-0.014,-0.0184,-0.023,-0.0319,-0.0381,-0.0416,-0.0483,-0.0438,-0.0434,-0.0478,-0.0501,-0.0436,-0.0356,-0.0333,-0.0621,-0.0623,-0.0624,-0.0625,0,0,0.0078,0.0079,0.0078,0.0081,0.0029,0.001,-0.0043,-0.009,-0.0091,-0.0166,-0.0156,-0.0269,-0.0267,-0.0318,-0.0375,-0.0333,-0.02,-0.036,-0.0359,-0.0255,-0.0027,-0.0047,-0.0025,-0.0219,-0.0215,-0.0212,0.0,0,0.0091,0.0106,0.0089,0.0077,0.0074,0.0025,-0.0013,-0.0058,-0.0098,-0.0104,-0.0148,-0.0169,-0.0248,-0.0244,-0.0216,-0.0211,-0.0141,-0.0252,-0.0125,-0.012,-0.0129,-0.0001,0.0009,0.0197,0.0022,0.0025,0.0028,0,0.0106,0.0116,0.0122,0.0116,0.0111,0.0092,0.0061,0.0029,0.0005,-0.0011,-0.0014,-0.0045,-0.0017,-0.0073,0.0012,-0.0051,-0.0017,-0.0002,0.0005,-0.0031,-0.01,0.0095,0.0243,0.0295,0.0062,0.0059,0.0056,0,0.0129,0.0134,0.0144,0.0139,0.0119,0.0117,0.01,0.0068,0.0072,0.0083,0.012,0.0117,0.0159,0.0188,0.0179,0.0125,0.0304,0.0229,0.0255,0.0254,0.0279,0.0273,0.0509,0.0344,0.0343,0.0343,0.0342,0,0.0146,0.0156,0.0169,0.0176,0.0194,0.0169,0.0196,0.0174,0.02,0.0246,0.0199,0.0259,0.0235,0.0294,0.0274,0.0344,0.0387,0.0319,0.0322,0.0312,0.0307,0.0358,0.0367,0.0351,0.0349,0.0347,0.0346,0,0.0163,0.0171,0.0192,0.0202,0.0208,0.0226,0.026,0.0293,0.031,0.0385,0.0408,0.0426,0.0495,0.0466,0.0538,0.0493,0.0583,0.0548,0.0542,0.0538,0.0571,0.0582,0.0819,0.0866,0.064,0.0641,0.0642,0,0.0173,0.0189,0.0221,0.0247,0.0258,0.0292,0.0321,0.0339,0.0389,0.0486,0.0541,0.0623,0.0661,0.0744,0.0685,0.0694,0.0689,0.0714,0.0595,0.0632,0.0648,0.064,0.0661,0.069,0.0691,0.0692,0.0693,0,0.0192,0.0208,0.0231,0.0289,0.0331,0.0379,0.0435,0.0491,0.0541,0.0615,0.0729,0.0779,0.0829,0.0828,0.0807,0.0789,0.0766,0.0732,0.0793,0.0746,0.0739,0.0762,0.0498,0.0701,0.07,0.0699,0.0699,0.0699,0.021,0.0235,0.0278,0.033,0.0384,0.0458,0.0507,0.0589,0.0681,0.0786,0.0847,0.0906,0.092,0.0874,0.0877,0.0871,0.0851,0.0853,0.0884,0.0887,0.088,0.0636,0.08,0.08,0.08,0.08,0.08,0,0.0234,0.0266,0.0318,0.0384,0.0447,0.047,0.0573,0.0631,0.0747,0.0825,0.0913,0.0943,0.0987,0.0973,0.0971,0.1009,0.1007,0.1042,0.1057,0.1082,0.0905,0.0848,0.1004,0.1004,0.1004,0.1004,0.1004,0.1004,0.0249,0.0296,0.0322,0.0419,0.0472,0.0552,0.061,0.0708,0.0768,0.0848,0.086,0.0875,0.0893,0.1084,0.1167,0.1177,0.125,0.1243,0.129,0.1163,0.1147,0.1132,0.1083,0.1285,0.1286,0.1451,0.1453,0.1454]}],[{"header":{"parameterUnit":"m.s-1","parameterCategory":2,"la1":30.2991,"la2":30.254,"lo1":-89.0895,"lo2":-89.0444,"dy":0.0017,"dx":0.0017,"nx":28,"ny":28,"refTime":"2024-06-25T09:00:00:Z","depth":"2","parameterNumber":2,"parameterNumberName":"U-component_of_CURRENTS"},"data":[0,0,0,0,0,0,0,0,0,0,0,0,0,0,0,0,0,0,0,0,0,0,0,0,0,0,0,0,0,0,0,0,0,0,0,0,0,0,0,0,0,0,0,0,0,0,0,0,0,0,0,0,0,0,0,0,0,0,0.126,0.126,0,0.1292,0.1292,0.1292,0.1332,0.1333,0.1333,0.1334,0.1386,0.1386,0.1387,0,0,0,0,0,0,0,0,0,0,0,0,0,0.1259,0.1259,0.126,0.126,0.1261,0.1292,0.1292,0.1292,0.1332,0.1333,0.1333,0.1334,0.1385,0.1386,0.1387,0,0,0,0,0,0,0,0,0,0,0,0,0,0.1271,0.1259,0.126,0.1285,0.1288,0.1292,0.1292,0.1292,0.1331,0.1333,0.1334,0.1335,0.1385,0.1386,0.1387,0.1371,0,0,0.139,0.1391,0,0,0,0,0,0,0,0,0.127,0.127,0.1281,0.1283,0.1287,0.131,0.1311,0.132,0.1331,0.1313,0.1334,0.1335,0.1362,0.1365,0.1366,0.1373,0.1375,0.139,0.1391,0.1391,0.1392,0,0,0,0,0,0,0,0.1269,0.1269,0.1271,0.1281,0.1285,0.1304,0.1307,0.1313,0.133,0.1315,0.1318,0.1324,0.1364,0.1365,0.1368,0.1376,0.139,0.1391,0.1392,0.1392,0.1527,0.153,0,0,0,0,0,0,0.1265,0.1268,0.127,0.1272,0.1283,0.1303,0.1306,0.13,0.133,0.1336,0.1323,0.1326,0.1363,0.1367,0.137,0.1469,0.1391,0.1392,0.1393,0.1524,0.1528,0.1531,0,0,0,0,0,0,0.1265,0.1264,0.1269,0.1273,0.1275,0.1302,0.1295,0.13,0.1322,0.1336,0.1342,0.1342,0.1364,0.1369,0.1414,0.1467,0.1393,0.1394,0.1521,0.1525,0.1529,0.1592,0,0,0,0,0,0,0.1264,0.1264,0.1262,0.1272,0.1275,0.128,0.1295,0.13,0.1323,0.1327,0.1354,0.1359,0.1365,0.1412,0.1415,0.1467,0.1394,0.1517,0.1523,0.1528,0.1586,0.1598,0.1608,0,0,0,0,0,0.1264,0.1261,0.1261,0.1262,0.127,0.128,0.1283,0.1305,0.1323,0.133,0.1369,0.1359,0.1451,0.1415,0.1417,0.1471,0.1514,0.1521,0.1527,0.1581,0.1595,0.1607,0,0,0,0,0,0,0.1264,0.1264,0.1266,0.1264,0.1274,0.1287,0.13,0.1313,0.1346,0.1364,0.1378,0.1386,0.145,0.1452,0.1412,0.1532,0.1488,0.1495,0.1528,0.1541,0.1552,0.1539,0.1395,0,0,0,0,0,0.126,0.1254,0.1262,0.126,0.1268,0.1285,0.1295,0.1312,0.134,0.1356,0.1377,0.1421,0.1474,0.15,0.1529,0.1578,0.1543,0.1623,0.1634,0.1643,0.1639,0.1676,0.1688,0.1553,0.1553,0.1553,0,0,0.1259,0.1259,0.1256,0.1259,0.1272,0.1294,0.1294,0.1317,0.1354,0.1356,0.1415,0.1448,0.1495,0.1564,0.1594,0.1575,0.1651,0.1652,0.1659,0.1649,0.1684,0.1696,0.1708,0.1557,0.1557,0.1556,0,0,0.1259,0.1256,0.1257,0.1265,0.1286,0.1306,0.1317,0.1342,0.1374,0.1422,0.146,0.1525,0.1574,0.1635,0.1671,0.1759,0.1704,0.1779,0.1826,0.1863,0.1873,0.1882,0.1787,0.1788,0.179,0.179,0.179,0,0.1262,0.1258,0.1261,0.127,0.1287,0.1317,0.1339,0.1377,0.1418,0.1454,0.1452,0.1578,0.1614,0.1729,0.1774,0.1783,0.1746,0.1767,0.1873,0.1882,0.189,0.1792,0.1791,0.1794,0.1793,0.1793,0.1793,0,0.1262,0.1267,0.1273,0.1296,0.1319,0.1339,0.1391,0.1436,0.1479,0.1513,0.1614,0.167,0.1743,0.1788,0.1808,0.191,0.184,0.1874,0.1829,0.1907,0.1798,0.1796,0.1799,0.1798,0.1797,0.1796,0,0,0.1249,0.1268,0.127,0.1278,0.1334,0.1347,0.1435,0.1506,0.1562,0.1624,0.169,0.1815,0.1834,0.1878,0.1924,0.1973,0.1987,0.1952,0.1952,0.1834,0.1967,0.1728,0.1701,0.2044,0.2046,0.2048,0.1841,0,0.1252,0.1264,0.1284,0.1316,0.1334,0.1393,0.147,0.1546,0.1609,0.1677,0.1771,0.184,0.1875,0.1912,0.1976,0.1993,0.1996,0.2032,0.1929,0.1923,0.1685,0.1698,0.1612,0.1407,0.1839,0.1838,0.1838,0,0.1247,0.1258,0.1282,0.1328,0.1343,0.138,0.1491,0.1548,0.1672,0.1721,0.1812,0.1861,0.1953,0.1968,0.2009,0.2027,0.1996,0.1994,0.1987,0.1743,0.1683,0.1416,0.1386,0.1834,0.1834,0.1835,0.1835,0,0.1227,0.1254,0.127,0.1281,0.1351,0.1393,0.1443,0.1566,0.1615,0.1728,0.1755,0.1877,0.1882,0.1944,0.1912,0.1975,0.1889,0.1977,0.1712,0.1689,0.1581,0.1546,0.1986,0.1986,0.1987,0.1987,0.1988,0,0.1217,0.1225,0.1256,0.126,0.1307,0.1361,0.1431,0.1505,0.16,0.1629,0.1752,0.1771,0.1882,0.1848,0.1876,0.1719,0.1845,0.1685,0.1638,0.1589,0.1559,0.193,0.1926,0.1979,0.1981,0.1983,0.1984,0,0.1193,0.1209,0.1219,0.1272,0.1292,0.1319,0.1394,0.1438,0.1523,0.1556,0.1581,0.1654,0.1592,0.1613,0.1621,0.1581,0.153,0.1437,0.1286,0.1225,0.1313,0.1316,0.116,0.115,0.1142,0.1135,0.1129,0,0.1181,0.1184,0.1208,0.1213,0.1232,0.1279,0.1321,0.1406,0.1425,0.1467,0.1456,0.1406,0.1355,0.1203,0.1149,0.1049,0.1219,0.0871,0.1011,0.1266,0.1237,0.1253,0.1266,0.0869,0.0862,0.0856,0.0851,0,0.1164,0.1168,0.1175,0.1183,0.1199,0.1219,0.1254,0.1256,0.1315,0.1314,0.1249,0.1205,0.1023,0.087,0.0683,0.0654,0.0899,0.0733,0.1078,0.1073,0.0971,0.0949,0.0977,0.0796,0.0802,0.0806,0.0809,0.0811,0.1152,0.1147,0.1148,0.1148,0.1156,0.114,0.1134,0.113,0.111,0.1055,0.1041,0.0902,0.0823,0.0503,0.0406,0.0311,0.0429,0.0451,0.0481,0.0515,0.05,0.0388,0.0093,0.0094,0.0095,0.0096,0.0097,0,0.1133,0.1122,0.1115,0.1099,0.1071,0.1097,0.1076,0.1037,0.095,0.0863,0.0776,0.058,0.0385,0.0309,0.008,-0.0008,0.012,-0.0022,0.0207,0.0255,0.0299,0.0288,-0.0183,-0.0183,-0.0183,-0.0184,0,0,0.1123,0.1098,0.108,0.1019,0.1001,0.0949,0.0917,0.0838,0.0762,0.0619,0.0493,0.043,0.0327,0.0133,0.0036,-0.0094,0.0112,-0.0123,0.0096,0.0419,0.0466,0.054,0.0567,0,0,0,0,0]},{"header":{"parameterUnit":"m.s-1","parameterCategory":2,"la1":30.2991,"la2":30.254,"lo1":-89.0895,"lo2":-89.0444,"dy":0.0017,"dx":0.0017,"nx":28,"ny":28,"refTime":"2024-06-25T09:00:00:Z","depth":"2","parameterNumber":3,"parameterNumberName":"V-component_of_CURRENTS"},"data":[0,0,0,0,0,0,0,0,0,0,0,0,0,0,0,0,0,0,0,0,0,0,0,0,0,0,0,0,0,0,0,0,0,0,0,0,0,0,0,0,0,0,0,0,0,0,0,0,0,0,0,0,0,0,0,0,0,0,0.0179,0.0179,0,0.0219,0.0219,0.022,0.0221,0.022,0.022,0.0219,0.0267,0.0269,0.027,0,0,0,0,0,0,0,0,0,0,0,0,0,0.0136,0.0137,0.0179,0.0179,0.018,0.0219,0.0219,0.022,0.0221,0.022,0.022,0.0219,0.0266,0.0268,0.0271,0,0,0,0,0,0,0,0,0,0,0,0,0,0.0164,0.0137,0.0179,0.0184,0.0185,0.0219,0.0219,0.022,0.0221,0.022,0.0219,0.0219,0.0266,0.0268,0.0271,0.0306,0,0,0.0279,0.028,0,0,0,0,0,0,0,0,0.0162,0.0166,0.0183,0.0184,0.0185,0.0213,0.0222,0.0249,0.0222,0.0209,0.0219,0.0218,0.025,0.0253,0.0264,0.0308,0.031,0.0279,0.0281,0.0282,0.0283,0,0,0,0,0,0,0,0.0161,0.0164,0.0196,0.0184,0.0185,0.0195,0.0198,0.0227,0.0235,0.021,0.021,0.0213,0.025,0.0262,0.0266,0.031,0.0279,0.0282,0.0284,0.0285,0.037,0.037,0,0,0,0,0,0,0.0153,0.0162,0.0195,0.0197,0.017,0.0197,0.02,0.0206,0.0234,0.0237,0.0213,0.0212,0.0258,0.0262,0.0267,0.0296,0.0282,0.0285,0.0286,0.0369,0.037,0.037,0,0,0,0,0,0,0.0152,0.0155,0.0193,0.0179,0.0185,0.0198,0.0205,0.0207,0.0208,0.0236,0.024,0.021,0.0257,0.0263,0.0285,0.0298,0.0286,0.0289,0.0368,0.0369,0.037,0.0362,0,0,0,0,0,0,0.015,0.0155,0.0158,0.0179,0.0185,0.0218,0.0206,0.0208,0.0211,0.021,0.0236,0.024,0.0257,0.0281,0.0288,0.0302,0.0291,0.0367,0.0369,0.037,0.0362,0.0363,0.0364,0,0,0,0,0,0.0149,0.0154,0.0158,0.0161,0.0188,0.0218,0.0223,0.023,0.0212,0.0225,0.023,0.0238,0.0293,0.0283,0.0291,0.0307,0.0367,0.0368,0.037,0.0361,0.0363,0.0364,0,0,0,0,0,0,0.0136,0.0155,0.0159,0.017,0.0195,0.0218,0.0224,0.0225,0.024,0.0228,0.0247,0.0252,0.028,0.0293,0.0282,0.0335,0.0332,0.0335,0.0323,0.0325,0.0325,0.0372,0.0293,0,0,0,0,0,0.0135,0.0145,0.0169,0.018,0.0187,0.0203,0.0213,0.0217,0.0231,0.0235,0.0255,0.0272,0.0296,0.0307,0.0335,0.0362,0.0383,0.0377,0.0378,0.0379,0.0422,0.0464,0.0474,0.0375,0.0375,0.0375,0,0,0.0132,0.0145,0.015,0.0178,0.0191,0.0213,0.0207,0.0218,0.024,0.024,0.027,0.028,0.0304,0.0336,0.0349,0.0345,0.0405,0.0381,0.0381,0.0425,0.0467,0.0477,0.0485,0.0376,0.0376,0.0376,0,0,0.0136,0.0143,0.0154,0.0175,0.0195,0.0211,0.0212,0.0235,0.0248,0.0273,0.0279,0.0312,0.0331,0.0374,0.0389,0.0419,0.0412,0.0399,0.0441,0.0479,0.0488,0.0497,0.0481,0.0489,0.0396,0.0396,0.0396,0,0.0133,0.0154,0.0164,0.0183,0.0201,0.0208,0.0231,0.0251,0.028,0.0311,0.028,0.0359,0.0367,0.0441,0.0435,0.0428,0.0416,0.0428,0.0482,0.0491,0.05,0.0482,0.0491,0.0396,0.0396,0.0396,0.0396,0,0.0151,0.0168,0.0175,0.0205,0.0227,0.0246,0.0274,0.0303,0.0305,0.0336,0.0403,0.0424,0.0481,0.047,0.0452,0.0522,0.0477,0.0477,0.0478,0.0509,0.0488,0.0496,0.0395,0.0395,0.0395,0.0395,0,0,0.0149,0.0182,0.0186,0.0212,0.0239,0.0268,0.0305,0.0367,0.0417,0.044,0.0519,0.0549,0.0566,0.0588,0.0584,0.0609,0.0621,0.0552,0.0554,0.0537,0.065,0.0603,0.0607,0.0606,0.0609,0.0611,0.059,0,0.0165,0.0202,0.0217,0.0267,0.0291,0.0321,0.0369,0.0423,0.0463,0.0542,0.0588,0.0648,0.0607,0.0624,0.0649,0.0633,0.0652,0.0625,0.0627,0.0627,0.0582,0.0621,0.0603,0.0583,0.0598,0.06,0.0601,0,0.0184,0.0209,0.025,0.0318,0.0334,0.0364,0.0459,0.0506,0.0609,0.064,0.0716,0.0743,0.0799,0.0755,0.0776,0.0742,0.0709,0.0692,0.0691,0.0675,0.06,0.0567,0.0599,0.0615,0.0614,0.0613,0.0612,0,0.019,0.0241,0.0278,0.0296,0.0365,0.0401,0.0445,0.0538,0.0602,0.071,0.076,0.0835,0.0865,0.086,0.0799,0.078,0.0804,0.078,0.0722,0.0714,0.0725,0.0716,0.0834,0.0834,0.0834,0.0834,0.0834,0,0.0209,0.0244,0.0284,0.0308,0.0376,0.0415,0.0505,0.0567,0.067,0.0761,0.0809,0.088,0.0888,0.0894,0.0838,0.0791,0.0833,0.0758,0.0731,0.0713,0.0703,0.0766,0.0758,0.0833,0.0833,0.0833,0.0833,0,0.0215,0.0237,0.0289,0.0354,0.0378,0.0426,0.0522,0.06,0.0676,0.0795,0.0828,0.0911,0.0899,0.0886,0.0871,0.0834,0.08,0.0777,0.0724,0.0693,0.067,0.0663,0.0729,0.0727,0.0726,0.0725,0.0725,0,0.0223,0.0244,0.0312,0.0347,0.0374,0.0444,0.0505,0.0594,0.0674,0.0806,0.0868,0.0905,0.0928,0.0877,0.0824,0.0749,0.0759,0.07,0.0703,0.0705,0.0672,0.0666,0.066,0.0681,0.068,0.0679,0.0679,0,0.024,0.0257,0.03,0.0361,0.0418,0.0494,0.0576,0.0635,0.0751,0.0824,0.0907,0.093,0.0903,0.0837,0.0752,0.0704,0.0711,0.068,0.0734,0.0708,0.0659,0.0626,0.0622,0.0671,0.0672,0.0672,0.0673,0.0673,0.0252,0.0278,0.0324,0.0387,0.0451,0.053,0.0586,0.0669,0.0761,0.0863,0.0892,0.0892,0.0878,0.0733,0.0677,0.062,0.0644,0.0628,0.0632,0.0636,0.0632,0.0585,0.0578,0.0579,0.0579,0.0579,0.0579,0,0.0269,0.0298,0.0352,0.0423,0.0485,0.0523,0.0633,0.0682,0.0756,0.081,0.0845,0.0778,0.0724,0.0676,0.0586,0.0558,0.0566,0.0538,0.0564,0.0571,0.0578,0.0573,0.0502,0.0502,0.0502,0.0501,0,0,0.028,0.0321,0.0344,0.0429,0.0483,0.056,0.0615,0.0679,0.072,0.0739,0.0721,0.0737,0.0702,0.0622,0.0591,0.0539,0.0556,0.0521,0.0586,0.0629,0.0636,0.0635,0.0635,0,0,0,0,0]}],[{"header":{"parameterUnit":"m.s-1","parameterCategory":2,"la1":30.2991,"la2":30.254,"lo1":-89.0895,"lo2":-89.0444,"dy":0.0017,"dx":0.0017,"nx":28,"ny":28,"refTime":"2024-06-25T09:00:00:Z","depth":"4","parameterNumber":2,"parameterNumberName":"U-component_of_CURRENTS"},"data":[0,0,0,0,0,0,0,0,0,0,0,0,0,0,0,0,0,0,0,0,0,0,0,0,0,0,0,0,0,0,0,0,0,0,0,0,0,0,0,0,0,0,0,0,0,0,0,0,0,0,0,0,0,0,0,0,0,0,0.0476,0.0474,0,0.0253,0.025,0.0248,0.0123,0.0123,0.0123,0.0122,-0.0063,-0.0068,-0.0073,0,0,0,0,0,0,0,0,0,0,0,0,0,0.0666,0.0664,0.0476,0.0474,0.0471,0.0254,0.025,0.0247,0.0123,0.0123,0.0123,0.0122,-0.0061,-0.0067,-0.0073,0,0,0,0,0,0,0,0,0,0,0,0,0,0.0524,0.0663,0.0476,0.0386,0.0375,0.0254,0.025,0.0246,0.0123,0.0123,0.0122,0.0122,-0.006,-0.0067,-0.0074,-0.0117,0,0,-0.0096,-0.0099,0,0,0,0,0,0,0,0,0.0533,0.0517,0.0401,0.0392,0.038,0.0219,0.0249,0.0128,0.0123,0.0215,0.0122,0.0122,0.0037,0.0022,-0.0026,-0.0126,-0.0134,-0.0097,-0.0101,-0.0104,-0.0106,0,0,0,0,0,0,0,0.0543,0.0525,0.0384,0.0399,0.0386,0.0312,0.0293,0.0224,0.0127,0.0207,0.0198,0.0179,0.0031,-0.0018,-0.0031,-0.0136,-0.0097,-0.0103,-0.0108,-0.011,-0.0174,-0.0171,0,0,0,0,0,0,0.0584,0.0535,0.0391,0.0378,0.0462,0.031,0.0288,0.0268,0.0127,0.0106,0.0179,0.0174,-0.0006,-0.0022,-0.0037,-0.0055,-0.0104,-0.0111,-0.0115,-0.0176,-0.0173,-0.017,0,0,0,0,0,0,0.0589,0.0573,0.04,0.0454,0.0428,0.0308,0.0285,0.0263,0.0228,0.0106,0.0085,0.0169,-0.0006,-0.0027,-0.01,-0.0064,-0.0114,-0.0121,-0.018,-0.0175,-0.0172,-0.0116,0,0,0,0,0,0,0.0595,0.0576,0.0583,0.0457,0.0426,0.0324,0.0285,0.0259,0.0217,0.0208,0.009,0.0071,-0.0008,-0.0088,-0.0107,-0.0075,-0.0127,-0.0183,-0.0178,-0.0173,-0.0121,-0.0111,-0.0102,0,0,0,0,0,0.0603,0.0598,0.0585,0.0568,0.0437,0.0324,0.03,0.0212,0.0218,0.0185,0.0117,0.0076,-0.0066,-0.0095,-0.0116,-0.0086,-0.0185,-0.0179,-0.0173,-0.0126,-0.0113,-0.0102,0,0,0,0,0,0,0.0668,0.0581,0.0565,0.0532,0.0442,0.0304,0.0276,0.0233,0.0153,0.0164,0.0065,0.0039,-0.0004,-0.004,-0.0067,-0.0076,-0.0113,-0.0111,-0.0069,-0.0058,-0.0048,-0.0003,-0.0133,0,0,0,0,0,0.0695,0.0681,0.0571,0.0548,0.0513,0.041,0.0364,0.0307,0.0218,0.0183,0.0097,0.0047,0.0003,-0.0025,-0.0088,-0.0115,-0.0107,-0.0087,-0.0077,-0.0069,-0.004,-0.0013,0.0002,-0.015,-0.015,-0.015,0,0,0.0716,0.0669,0.066,0.0565,0.0497,0.0411,0.038,0.0315,0.0255,0.0179,0.0087,0.0056,0.0003,-0.0037,-0.0051,-0.0064,-0.0017,-0.0061,-0.0055,-0.0029,-0.0005,0.001,0.0023,-0.0146,-0.0147,-0.0147,0,0,0.0728,0.071,0.0691,0.0617,0.0529,0.0446,0.044,0.0315,0.0277,0.0197,0.0151,0.0155,0.0043,0.0026,0.0008,0.0051,0.0025,0.0048,0.013,0.0156,0.0168,0.0179,0.0217,0.023,0.0064,0.0064,0.0064,0,0.0758,0.0711,0.0663,0.0605,0.0548,0.0467,0.0405,0.0337,0.0205,0.0211,0.0183,0.0134,0.0085,0.0093,0.0112,0.0073,0.0082,0.0074,0.0166,0.0177,0.0187,0.0223,0.0238,0.0067,0.0067,0.0067,0.0066,0,0.0727,0.069,0.0668,0.0571,0.0503,0.044,0.0339,0.0287,0.0259,0.0228,0.0242,0.0193,0.0191,0.0189,0.0153,0.0222,0.0204,0.016,0.0127,0.0205,0.0239,0.0253,0.0072,0.0071,0.007,0.0069,0,0,0.0772,0.0672,0.0663,0.0619,0.0489,0.0421,0.0348,0.0279,0.0279,0.0238,0.0264,0.0258,0.0309,0.03,0.0286,0.0322,0.0403,0.0285,0.0285,0.031,0.047,0.0316,0.0315,0.036,0.0362,0.0364,0.0467,0,0.0756,0.0676,0.0621,0.0519,0.0454,0.0375,0.0305,0.0258,0.0245,0.0241,0.0306,0.0317,0.0327,0.0353,0.04,0.0385,0.0441,0.038,0.0404,0.0406,0.0247,0.0327,0.0373,0.0477,0.048,0.0483,0.0484,0,0.0723,0.0674,0.0603,0.0501,0.0471,0.0408,0.0337,0.0277,0.0286,0.0297,0.038,0.0401,0.0487,0.0462,0.0552,0.0507,0.0521,0.0516,0.0518,0.0368,0.0277,0.0384,0.0509,0.0507,0.0505,0.0503,0.0502,0,0.0758,0.0652,0.0612,0.0567,0.044,0.0425,0.0368,0.0338,0.0323,0.0372,0.0398,0.0492,0.0536,0.0585,0.0595,0.0583,0.0656,0.063,0.0519,0.0508,0.0589,0.0576,0.071,0.071,0.071,0.0709,0.0709,0,0.0736,0.0694,0.0639,0.0605,0.0557,0.0478,0.0468,0.0419,0.0418,0.0435,0.0474,0.0499,0.0566,0.0599,0.0623,0.0606,0.0691,0.0562,0.0528,0.0612,0.0601,0.0599,0.0585,0.0713,0.0712,0.0712,0.0711,0,0.0751,0.0716,0.0664,0.0591,0.057,0.055,0.0497,0.0484,0.0486,0.0504,0.0525,0.0538,0.0569,0.0599,0.0649,0.0617,0.0619,0.0587,0.0691,0.0656,0.0466,0.0454,0.0522,0.0518,0.0514,0.051,0.0508,0,0.0741,0.0724,0.0682,0.0662,0.0636,0.0607,0.0568,0.0527,0.0517,0.0517,0.0517,0.0545,0.0554,0.0534,0.0548,0.0567,0.0538,0.0545,0.0519,0.0488,0.0449,0.0443,0.0437,0.0502,0.0501,0.05,0.0499,0,0.072,0.0739,0.0712,0.0688,0.066,0.0606,0.0569,0.0555,0.0514,0.0536,0.0501,0.0483,0.0484,0.0484,0.0463,0.0477,0.0545,0.0506,0.0515,0.0491,0.0464,0.0428,0.0426,0.0485,0.0487,0.0489,0.0489,0,0.0727,0.0722,0.0719,0.0681,0.0658,0.0592,0.057,0.0519,0.0493,0.0482,0.0478,0.0481,0.0502,0.0436,0.0431,0.0401,0.0404,0.0388,0.0403,0.0418,0.0317,0.0264,0.022,0,0,0,0,0,0.0709,0.07,0.0686,0.0641,0.0627,0.0594,0.0541,0.0519,0.0505,0.0466,0.0462,0.0453,0.0399,0.0389,0.0339,0.0366,0.0403,0.0299,0.0394,0.0412,0.0427,0.0307,0,0,0,0,0,0,0.0696,0.07,0.0684,0.0622,0.0587,0.0537,0.0497,0.0475,0.0442,0.0447,0.0428,0.0419,0.0387,0.0453,0.0344,0.0334,0.0373,0.0292,0.0289,0.0403,0.0417,0.0429,0.0311,0,0,0,0,0]},{"header":{"parameterUnit":"m.s-1","parameterCategory":2,"la1":30.2991,"la2":30.254,"lo1":-89.0895,"lo2":-89.0444,"dy":0.0017,"dx":0.0017,"nx":28,"ny":28,"refTime":"2024-06-25T09:00:00:Z","depth":"4","parameterNumber":3,"parameterNumberName":"V-component_of_CURRENTS"},"data":[0,0,0,0,0,0,0,0,0,0,0,0,0,0,0,0,0,0,0,0,0,0,0,0,0,0,0,0,0,0,0,0,0,0,0,0,0,0,0,0,0,0,0,0,0,0,0,0,0,0,0,0,0,0,0,0,0,0,0.03,0.0301,0,0.0418,0.0419,0.0421,0.0496,0.0496,0.0496,0.0496,0.0606,0.0609,0.0612,0,0,0,0,0,0,0,0,0,0,0,0,0,0.0212,0.0213,0.0299,0.0301,0.0302,0.0417,0.0419,0.0421,0.0495,0.0496,0.0496,0.0496,0.0605,0.0609,0.0612,0,0,0,0,0,0,0,0,0,0,0,0,0,0.0284,0.0214,0.0299,0.0351,0.0357,0.0417,0.0419,0.0421,0.0495,0.0496,0.0496,0.0496,0.0604,0.0608,0.0612,0.0631,0,0,0.0625,0.0627,0,0,0,0,0,0,0,0,0.028,0.0288,0.0342,0.0348,0.0354,0.044,0.0429,0.049,0.0495,0.0445,0.0496,0.0497,0.0548,0.0557,0.0582,0.0636,0.0641,0.0625,0.0628,0.063,0.0631,0,0,0,0,0,0,0,0.0275,0.0283,0.0349,0.0344,0.0351,0.0394,0.0404,0.0441,0.0495,0.045,0.0455,0.0464,0.0552,0.0578,0.0585,0.0642,0.0625,0.0629,0.0631,0.0633,0.0747,0.0748,0,0,0,0,0,0,0.0251,0.0278,0.0345,0.0352,0.0315,0.0395,0.0406,0.0414,0.0495,0.0507,0.0464,0.0467,0.0571,0.058,0.0589,0.0665,0.0629,0.0633,0.0636,0.0746,0.0747,0.0748,0,0,0,0,0,0,0.0249,0.0256,0.034,0.0316,0.0329,0.0395,0.0404,0.0416,0.0449,0.0505,0.0518,0.0484,0.0571,0.0583,0.0653,0.0667,0.0635,0.0639,0.0746,0.0747,0.0747,0.0784,0,0,0,0,0,0,0.0246,0.0255,0.026,0.0314,0.033,0.0386,0.0404,0.0418,0.0453,0.0459,0.0527,0.0537,0.0572,0.0647,0.0657,0.0672,0.0642,0.0745,0.0746,0.0747,0.0782,0.0786,0.0789,0,0,0,0,0,0.0243,0.0248,0.0259,0.0267,0.0332,0.0386,0.04,0.0449,0.0453,0.0477,0.0534,0.0536,0.0659,0.0652,0.0664,0.068,0.0744,0.0746,0.0747,0.078,0.0785,0.0789,0,0,0,0,0,0,0.0218,0.0257,0.0271,0.0289,0.0337,0.0398,0.0422,0.0447,0.0509,0.0514,0.0562,0.0578,0.0642,0.0652,0.0642,0.0712,0.0694,0.0698,0.0715,0.072,0.0723,0.0715,0.0645,0,0,0,0,0,0.021,0.0223,0.0272,0.029,0.0309,0.0363,0.0391,0.0422,0.0478,0.0506,0.0556,0.0602,0.0654,0.0681,0.0727,0.0771,0.0745,0.078,0.0784,0.0787,0.0787,0.0742,0.0741,0.0752,0.0752,0.0752,0,0,0.0205,0.0228,0.0237,0.0285,0.0323,0.0368,0.0382,0.0424,0.0473,0.0506,0.0588,0.0624,0.067,0.0733,0.0758,0.0745,0.0776,0.0789,0.0792,0.0789,0.0743,0.0742,0.0741,0.0753,0.0753,0.0753,0,0,0.0206,0.0222,0.0237,0.0276,0.0328,0.0369,0.0378,0.0444,0.0486,0.0566,0.0597,0.0642,0.0727,0.076,0.0787,0.083,0.08,0.0836,0.0849,0.0806,0.0804,0.0802,0.0786,0.0782,0.0832,0.0832,0.0832,0,0.0201,0.0227,0.0254,0.0286,0.0329,0.0368,0.0414,0.0461,0.0546,0.0581,0.0596,0.0702,0.074,0.0799,0.0826,0.0839,0.0814,0.0833,0.0809,0.0807,0.0804,0.0788,0.0783,0.0834,0.0833,0.0833,0.0833,0,0.0221,0.0247,0.0261,0.0318,0.037,0.0411,0.048,0.0528,0.0577,0.0624,0.0696,0.0748,0.0803,0.0817,0.085,0.0854,0.0844,0.0822,0.0796,0.0805,0.0788,0.0782,0.0836,0.0836,0.0835,0.0835,0,0,0.0204,0.0262,0.027,0.0307,0.0392,0.0438,0.0514,0.0597,0.0633,0.0703,0.0747,0.0837,0.0839,0.0867,0.0884,0.0855,0.0835,0.0837,0.0834,0.0818,0.0753,0.0725,0.0716,0.0799,0.0798,0.0797,0.0755,0,0.0219,0.0269,0.0311,0.039,0.0432,0.05,0.0572,0.0648,0.0704,0.075,0.0784,0.0836,0.0864,0.0882,0.0863,0.0842,0.0819,0.0849,0.0749,0.0747,0.0717,0.0708,0.0794,0.0751,0.0749,0.0748,0.0748,0,0.0237,0.027,0.0336,0.0429,0.0456,0.0512,0.0621,0.0691,0.0756,0.0793,0.0828,0.0848,0.0864,0.0855,0.0821,0.0837,0.0806,0.0775,0.0771,0.0725,0.0707,0.0735,0.0737,0.0738,0.0739,0.074,0.074,0,0.0224,0.0299,0.0352,0.0385,0.049,0.054,0.0608,0.0698,0.0754,0.0802,0.0818,0.084,0.0843,0.0803,0.078,0.0792,0.0702,0.0704,0.0651,0.065,0.0673,0.0675,0.0653,0.0653,0.0653,0.0653,0.0653,0,0.0237,0.028,0.0341,0.0372,0.0448,0.0533,0.0616,0.0677,0.0742,0.0786,0.0828,0.0833,0.0822,0.0785,0.0757,0.069,0.0686,0.0651,0.0628,0.0694,0.0698,0.067,0.0673,0.0651,0.0652,0.0652,0.0652,0,0.0229,0.0263,0.0324,0.0412,0.0442,0.0503,0.062,0.0667,0.073,0.0773,0.0787,0.0816,0.0778,0.0754,0.0679,0.0658,0.0592,0.0564,0.065,0.0633,0.0582,0.0587,0.0512,0.051,0.0509,0.0508,0.0507,0,0.0232,0.0256,0.0337,0.0373,0.0413,0.0502,0.0562,0.0655,0.0696,0.0757,0.076,0.0749,0.0758,0.0633,0.0614,0.0548,0.0538,0.0514,0.055,0.0578,0.0563,0.0571,0.0577,0.0505,0.0504,0.0504,0.0504,0,0.024,0.0261,0.0308,0.0364,0.0422,0.0497,0.0574,0.0594,0.069,0.0729,0.0719,0.0698,0.0648,0.0603,0.0549,0.0504,0.0536,0.0501,0.0504,0.0537,0.0568,0.0557,0.0565,0.0499,0.05,0.05,0.05,0,0.0243,0.0266,0.0309,0.0367,0.0426,0.0475,0.0526,0.0569,0.0617,0.0673,0.0656,0.064,0.0642,0.0578,0.0524,0.0481,0.0485,0.0477,0.0482,0.0487,0.0497,0.0534,0.0426,0,0,0,0,0,0.0247,0.0267,0.0313,0.037,0.0423,0.0457,0.053,0.0576,0.0632,0.0613,0.064,0.0597,0.0546,0.053,0.0478,0.0509,0.0482,0.0448,0.0475,0.0473,0.0479,0.0492,0,0,0,0,0,0,0.0249,0.0284,0.0303,0.0353,0.0387,0.0448,0.049,0.0533,0.0528,0.0571,0.0536,0.0566,0.0508,0.0556,0.0464,0.0459,0.0467,0.0439,0.0438,0.047,0.0475,0.0479,0.0495,0,0,0,0,0]}]]